Year,Month,Day,Hour,Minute,Value (Times are PST for temperature in C)
2011,04,28,00,00,4.10
2011,04,28,00,01,4.10
2011,04,28,00,04,4.10
2011,04,28,00,05,4.10
2011,04,28,00,06,4.10
2011,04,28,00,07,4.10
2011,04,28,00,08,4.10
2011,04,28,00,09,4.10
2011,04,28,00,10,4.10
2011,04,28,00,11,4.20
2011,04,28,00,12,4.20
2011,04,28,00,13,4.20
2011,04,28,00,14,4.20
2011,04,28,00,15,4.20
2011,04,28,00,16,4.20
2011,04,28,00,17,4.20
2011,04,28,00,18,4.20
2011,04,28,00,19,4.20
2011,04,28,00,20,4.20
2011,04,28,00,21,4.30
2011,04,28,00,22,4.30
2011,04,28,00,23,4.30
2011,04,28,00,26,4.30
2011,04,28,00,27,4.30
2011,04,28,00,28,4.30
2011,04,28,00,29,4.40
2011,04,28,00,30,4.40
2011,04,28,00,31,4.40
2011,04,28,00,32,4.40
2011,04,28,00,33,4.40
2011,04,28,00,34,4.40
2011,04,28,00,35,4.40
2011,04,28,00,36,4.40
2011,04,28,00,37,4.40
2011,04,28,00,38,4.40
2011,04,28,00,39,4.40
2011,04,28,00,40,4.40
2011,04,28,00,41,4.40
2011,04,28,00,42,4.40
2011,04,28,00,43,4.40
2011,04,28,00,44,4.40
2011,04,28,00,45,4.40
2011,04,28,00,46,4.40
2011,04,28,00,47,4.40
2011,04,28,00,48,4.40
2011,04,28,00,49,4.40
2011,04,28,00,50,4.40
2011,04,28,00,51,4.40
2011,04,28,00,52,4.40
2011,04,28,00,53,4.40
2011,04,28,00,54,4.40
2011,04,28,00,55,4.30
2011,04,28,00,56,4.30
2011,04,28,00,57,4.30
2011,04,28,00,58,4.30
2011,04,28,00,59,4.30
2011,04,28,01,00,4.30
2011,04,28,01,01,4.30
2011,04,28,01,02,4.30
2011,04,28,01,03,4.30
2011,04,28,01,04,4.30
2011,04,28,01,05,4.30
2011,04,28,01,06,4.30
2011,04,28,01,07,4.30
2011,04,28,01,08,4.30
2011,04,28,01,09,4.30
2011,04,28,01,10,4.30
2011,04,28,01,11,4.30
2011,04,28,01,12,4.30
2011,04,28,01,13,4.30
2011,04,28,01,14,4.40
2011,04,28,01,15,4.40
2011,04,28,01,16,4.40
2011,04,28,01,17,4.40
2011,04,28,01,18,4.40
2011,04,28,01,19,4.40
2011,04,28,01,20,4.40
2011,04,28,01,21,4.40
2011,04,28,01,22,4.40
2011,04,28,01,23,4.40
2011,04,28,01,24,4.40
2011,04,28,01,25,4.40
2011,04,28,01,26,4.40
2011,04,28,01,27,4.40
2011,04,28,01,28,4.40
2011,04,28,01,29,4.40
2011,04,28,01,30,4.40
2011,04,28,01,31,4.40
2011,04,28,01,32,4.40
2011,04,28,01,33,4.40
2011,04,28,01,34,4.40
2011,04,28,01,35,4.40
2011,04,28,01,36,4.40
2011,04,28,01,37,4.40
2011,04,28,01,38,4.30
2011,04,28,01,39,4.30
2011,04,28,01,40,4.30
2011,04,28,01,41,4.30
2011,04,28,01,42,4.30
2011,04,28,01,43,4.30
2011,04,28,01,44,4.30
2011,04,28,01,45,4.30
2011,04,28,01,46,4.30
2011,04,28,01,47,4.30
2011,04,28,01,48,4.30
2011,04,28,01,49,4.30
2011,04,28,01,50,4.30
2011,04,28,01,51,4.20
2011,04,28,01,52,4.20
2011,04,28,01,53,4.20
2011,04,28,01,54,4.20
2011,04,28,01,55,4.20
2011,04,28,01,56,4.20
2011,04,28,01,57,4.20
2011,04,28,01,58,4.20
2011,04,28,01,59,4.20
2011,04,28,02,00,4.10
2011,04,28,02,01,4.10
2011,04,28,02,02,4.10
2011,04,28,02,03,4.10
2011,04,28,02,04,4.10
2011,04,28,02,05,4.10
2011,04,28,02,06,4.10
2011,04,28,02,07,4.10
2011,04,28,02,08,4.10
2011,04,28,02,09,4.00
2011,04,28,02,10,4.00
2011,04,28,02,11,4.00
2011,04,28,02,12,4.00
2011,04,28,02,13,3.90
2011,04,28,02,14,3.90
2011,04,28,02,15,3.90
2011,04,28,02,16,3.90
2011,04,28,02,17,3.90
2011,04,28,02,18,3.90
2011,04,28,02,19,3.90
2011,04,28,02,22,3.80
2011,04,28,02,23,3.80
2011,04,28,02,24,3.80
2011,04,28,02,25,3.80
2011,04,28,02,26,3.80
2011,04,28,02,27,3.80
2011,04,28,02,28,3.80
2011,04,28,02,29,3.80
2011,04,28,02,30,3.80
2011,04,28,02,31,3.80
2011,04,28,02,32,3.80
2011,04,28,02,33,3.80
2011,04,28,02,34,3.80
2011,04,28,02,35,3.80
2011,04,28,02,36,3.80
2011,04,28,02,37,3.80
2011,04,28,02,38,3.80
2011,04,28,02,39,3.80
2011,04,28,02,40,3.80
2011,04,28,02,41,3.80
2011,04,28,02,42,3.80
2011,04,28,02,43,3.80
2011,04,28,02,44,3.80
2011,04,28,02,45,3.70
2011,04,28,02,46,3.80
2011,04,28,02,47,3.80
2011,04,28,02,48,3.80
2011,04,28,02,49,3.70
2011,04,28,02,50,3.70
2011,04,28,02,51,3.70
2011,04,28,02,52,3.70
2011,04,28,02,53,3.70
2011,04,28,02,54,3.70
2011,04,28,02,55,3.70
2011,04,28,02,56,3.70
2011,04,28,02,57,3.70
2011,04,28,02,58,3.70
2011,04,28,02,59,3.70
2011,04,28,03,00,3.70
2011,04,28,03,01,3.70
2011,04,28,03,02,3.70
2011,04,28,03,03,3.60
2011,04,28,03,06,3.60
2011,04,28,03,07,3.60
2011,04,28,03,08,3.60
2011,04,28,03,09,3.60
2011,04,28,03,10,3.60
2011,04,28,03,11,3.60
2011,04,28,03,12,3.60
2011,04,28,03,13,3.50
2011,04,28,03,14,3.50
2011,04,28,03,15,3.50
2011,04,28,03,16,3.50
2011,04,28,03,17,3.50
2011,04,28,03,18,3.40
2011,04,28,03,19,3.40
2011,04,28,03,20,3.40
2011,04,28,03,21,3.40
2011,04,28,03,22,3.50
2011,04,28,03,23,3.50
2011,04,28,03,24,3.50
2011,04,28,03,25,3.50
2011,04,28,03,26,3.50
2011,04,28,03,27,3.60
2011,04,28,03,28,3.60
2011,04,28,03,29,3.70
2011,04,28,03,30,3.70
2011,04,28,03,31,3.70
2011,04,28,03,32,3.70
2011,04,28,03,33,3.70
2011,04,28,03,34,3.70
2011,04,28,03,35,3.80
2011,04,28,03,36,3.80
2011,04,28,03,37,3.80
2011,04,28,03,38,3.90
2011,04,28,03,39,3.90
2011,04,28,03,40,3.90
2011,04,28,03,41,3.90
2011,04,28,03,42,3.90
2011,04,28,03,43,4.00
2011,04,28,03,44,4.00
2011,04,28,03,45,4.00
2011,04,28,03,46,4.00
2011,04,28,03,47,4.00
2011,04,28,03,48,4.10
2011,04,28,03,49,4.10
2011,04,28,03,50,4.10
2011,04,28,03,51,4.10
2011,04,28,03,52,4.00
2011,04,28,03,53,4.00
2011,04,28,03,54,4.00
2011,04,28,03,55,4.00
2011,04,28,03,56,3.90
2011,04,28,03,57,3.90
2011,04,28,03,58,3.90
2011,04,28,03,59,3.80
2011,04,28,04,00,3.80
2011,04,28,04,01,3.80
2011,04,28,04,02,3.80
2011,04,28,04,03,3.70
2011,04,28,04,04,3.70
2011,04,28,04,05,3.70
2011,04,28,04,06,3.70
2011,04,28,04,07,3.70
2011,04,28,04,08,3.70
2011,04,28,04,09,3.70
2011,04,28,04,12,3.70
2011,04,28,04,13,3.70
2011,04,28,04,14,3.80
2011,04,28,04,15,3.80
2011,04,28,04,16,3.80
2011,04,28,04,17,3.90
2011,04,28,04,18,3.90
2011,04,28,04,19,3.90
2011,04,28,04,20,3.90
2011,04,28,04,21,3.90
2011,04,28,04,22,3.90
2011,04,28,04,23,3.90
2011,04,28,04,24,3.90
2011,04,28,04,25,3.90
2011,04,28,04,26,3.90
2011,04,28,04,27,3.90
2011,04,28,04,28,3.90
2011,04,28,04,29,3.90
2011,04,28,04,30,3.90
2011,04,28,04,31,3.80
2011,04,28,04,32,3.80
2011,04,28,04,33,3.80
2011,04,28,04,34,3.80
2011,04,28,04,37,3.70
2011,04,28,04,38,3.70
2011,04,28,04,39,3.70
2011,04,28,04,40,3.70
2011,04,28,04,41,3.70
2011,04,28,04,42,3.70
2011,04,28,04,43,3.70
2011,04,28,04,44,3.70
2011,04,28,04,45,3.70
2011,04,28,04,46,3.70
2011,04,28,04,47,3.60
2011,04,28,04,48,3.60
2011,04,28,04,49,3.60
2011,04,28,04,50,3.60
2011,04,28,04,51,3.60
2011,04,28,04,54,3.70
2011,04,28,04,57,3.70
2011,04,28,04,58,3.70
2011,04,28,04,59,3.70
2011,04,28,05,00,3.70
2011,04,28,05,04,3.80
2011,04,28,05,05,3.80
2011,04,28,05,06,3.80
2011,04,28,05,09,3.80
2011,04,28,05,10,3.80
2011,04,28,05,11,3.80
2011,04,28,05,12,3.80
2011,04,28,05,13,3.80
2011,04,28,05,14,3.70
2011,04,28,05,15,3.70
2011,04,28,05,16,3.70
2011,04,28,05,17,3.70
2011,04,28,05,18,3.70
2011,04,28,05,19,3.70
2011,04,28,05,20,3.70
2011,04,28,05,21,3.70
2011,04,28,05,22,3.70
2011,04,28,05,23,3.70
2011,04,28,05,24,3.70
2011,04,28,05,25,3.70
2011,04,28,05,26,3.80
2011,04,28,05,27,3.80
2011,04,28,05,28,3.80
2011,04,28,05,29,3.90
2011,04,28,05,30,3.90
2011,04,28,05,31,3.90
2011,04,28,05,32,4.00
2011,04,28,05,33,4.00
2011,04,28,05,34,4.10
2011,04,28,05,35,4.10
2011,04,28,05,36,4.10
2011,04,28,05,37,4.10
2011,04,28,05,38,4.10
2011,04,28,05,39,4.10
2011,04,28,05,40,4.10
2011,04,28,05,41,4.10
2011,04,28,05,42,4.10
2011,04,28,05,43,4.10
2011,04,28,05,44,4.10
2011,04,28,05,45,4.10
2011,04,28,05,46,4.10
2011,04,28,05,47,4.10
2011,04,28,05,48,4.10
2011,04,28,05,49,4.10
2011,04,28,05,50,4.10
2011,04,28,05,51,4.10
2011,04,28,05,52,4.10
2011,04,28,05,53,4.10
2011,04,28,05,54,4.10
2011,04,28,05,55,4.10
2011,04,28,05,56,4.10
2011,04,28,05,57,4.10
2011,04,28,05,58,4.10
2011,04,28,05,59,4.10
2011,04,28,06,00,4.10
2011,04,28,06,01,4.10
2011,04,28,06,02,4.10
2011,04,28,06,03,4.10
2011,04,28,06,04,4.10
2011,04,28,06,05,4.10
2011,04,28,06,08,4.00
2011,04,28,06,09,4.00
2011,04,28,06,10,4.00
2011,04,28,06,11,4.00
2011,04,28,06,12,4.00
2011,04,28,06,13,4.00
2011,04,28,06,14,3.90
2011,04,28,06,15,3.90
2011,04,28,06,18,3.80
2011,04,28,06,19,3.80
2011,04,28,06,20,3.80
2011,04,28,06,21,3.80
2011,04,28,06,22,3.80
2011,04,28,06,23,3.80
2011,04,28,06,24,3.80
2011,04,28,06,25,3.80
2011,04,28,06,26,3.80
2011,04,28,06,27,3.80
2011,04,28,06,28,3.80
2011,04,28,06,29,3.80
2011,04,28,06,30,3.90
2011,04,28,06,31,3.90
2011,04,28,06,32,3.90
2011,04,28,06,33,4.00
2011,04,28,06,34,4.00
2011,04,28,06,35,4.10
2011,04,28,06,36,4.10
2011,04,28,06,37,4.20
2011,04,28,06,38,4.20
2011,04,28,06,39,4.30
2011,04,28,06,40,4.30
2011,04,28,06,41,4.40
2011,04,28,06,42,4.40
2011,04,28,06,43,4.40
2011,04,28,06,44,4.50
2011,04,28,06,45,4.50
2011,04,28,06,46,4.50
2011,04,28,06,47,4.50
2011,04,28,06,48,4.50
2011,04,28,06,49,4.50
2011,04,28,06,50,4.50
2011,04,28,06,51,4.40
2011,04,28,06,52,4.40
2011,04,28,06,53,4.30
2011,04,28,06,54,4.30
2011,04,28,06,55,4.30
2011,04,28,06,56,4.30
2011,04,28,06,57,4.30
2011,04,28,06,58,4.30
2011,04,28,06,59,4.30
2011,04,28,07,00,4.40
2011,04,28,07,01,4.40
2011,04,28,07,02,4.50
2011,04,28,07,03,4.60
2011,04,28,07,04,4.60
2011,04,28,07,05,4.70
2011,04,28,07,06,4.80
2011,04,28,07,07,4.90
2011,04,28,07,08,5.00
2011,04,28,07,09,5.00
2011,04,28,07,10,5.10
2011,04,28,07,11,5.10
2011,04,28,07,12,5.10
2011,04,28,07,13,5.10
2011,04,28,07,14,5.10
2011,04,28,07,15,5.00
2011,04,28,07,16,5.00
2011,04,28,07,17,5.00
2011,04,28,07,18,5.00
2011,04,28,07,19,4.90
2011,04,28,07,20,4.90
2011,04,28,07,21,4.90
2011,04,28,07,22,4.90
2011,04,28,07,23,4.90
2011,04,28,07,24,4.90
2011,04,28,07,25,5.00
2011,04,28,07,26,5.00
2011,04,28,07,27,5.10
2011,04,28,07,28,5.10
2011,04,28,07,29,5.10
2011,04,28,07,30,5.10
2011,04,28,07,31,5.20
2011,04,28,07,32,5.20
2011,04,28,07,33,5.20
2011,04,28,07,34,5.30
2011,04,28,07,35,5.30
2011,04,28,07,36,5.30
2011,04,28,07,37,5.30
2011,04,28,07,38,5.40
2011,04,28,07,39,5.40
2011,04,28,07,40,5.40
2011,04,28,07,41,5.40
2011,04,28,07,42,5.40
2011,04,28,07,43,5.40
2011,04,28,07,44,5.40
2011,04,28,07,45,5.40
2011,04,28,07,46,5.40
2011,04,28,07,47,5.40
2011,04,28,07,48,5.40
2011,04,28,07,49,5.40
2011,04,28,07,50,5.40
2011,04,28,07,51,5.40
2011,04,28,07,52,5.40
2011,04,28,07,53,5.40
2011,04,28,07,54,5.40
2011,04,28,07,55,5.40
2011,04,28,07,56,5.40
2011,04,28,07,57,5.50
2011,04,28,07,58,5.50
2011,04,28,07,59,5.50
2011,04,28,08,00,5.50
2011,04,28,08,01,5.50
2011,04,28,08,02,5.50
2011,04,28,08,03,5.50
2011,04,28,08,04,5.50
2011,04,28,08,05,5.50
2011,04,28,08,06,5.50
2011,04,28,08,07,5.50
2011,04,28,08,08,5.50
2011,04,28,08,09,5.50
2011,04,28,08,10,5.50
2011,04,28,08,11,5.50
2011,04,28,08,12,5.50
2011,04,28,08,13,5.50
2011,04,28,08,14,5.60
2011,04,28,08,15,5.60
2011,04,28,08,16,5.60
2011,04,28,08,17,5.60
2011,04,28,08,18,5.60
2011,04,28,08,19,5.70
2011,04,28,08,20,5.70
2011,04,28,08,21,5.70
2011,04,28,08,22,5.70
2011,04,28,08,23,5.80
2011,04,28,08,24,5.80
2011,04,28,08,25,5.80
2011,04,28,08,26,5.80
2011,04,28,08,27,5.80
2011,04,28,08,28,5.90
2011,04,28,08,29,5.90
2011,04,28,08,30,5.90
2011,04,28,08,31,5.90
2011,04,28,08,32,5.90
2011,04,28,08,33,6.00
2011,04,28,08,34,6.00
2011,04,28,08,35,6.00
2011,04,28,08,36,6.10
2011,04,28,08,37,6.10
2011,04,28,08,38,6.10
2011,04,28,08,39,6.20
2011,04,28,08,40,6.20
2011,04,28,08,41,6.20
2011,04,28,08,42,6.20
2011,04,28,08,43,6.30
2011,04,28,08,44,6.30
2011,04,28,08,45,6.30
2011,04,28,08,46,6.40
2011,04,28,08,47,6.40
2011,04,28,08,48,6.50
2011,04,28,08,49,6.50
2011,04,28,08,50,6.60
2011,04,28,08,51,6.60
2011,04,28,08,52,6.60
2011,04,28,08,53,6.70
2011,04,28,08,54,6.70
2011,04,28,08,55,6.80
2011,04,28,08,56,6.80
2011,04,28,08,57,6.80
2011,04,28,08,58,6.80
2011,04,28,08,59,6.80
2011,04,28,09,00,6.80
2011,04,28,09,01,6.80
2011,04,28,09,02,6.80
2011,04,28,09,03,6.80
2011,04,28,09,04,7.00
2011,04,28,09,05,7.00
2011,04,28,09,06,7.10
2011,04,28,09,07,7.20
2011,04,28,09,08,7.30
2011,04,28,09,09,7.40
2011,04,28,09,10,7.50
2011,04,28,09,11,7.60
2011,04,28,09,14,7.70
2011,04,28,09,15,7.70
2011,04,28,09,16,7.80
2011,04,28,09,17,7.90
2011,04,28,09,18,8.00
2011,04,28,09,19,8.10
2011,04,28,09,20,8.20
2011,04,28,09,21,8.20
2011,04,28,09,22,8.30
2011,04,28,09,23,8.30
2011,04,28,09,24,8.20
2011,04,28,09,25,8.10
2011,04,28,09,26,7.90
2011,04,28,09,27,7.70
2011,04,28,09,28,7.60
2011,04,28,09,29,7.60
2011,04,28,09,30,7.50
2011,04,28,09,31,7.60
2011,04,28,09,32,7.60
2011,04,28,09,33,7.60
2011,04,28,09,34,7.70
2011,04,28,09,35,7.70
2011,04,28,09,36,7.70
2011,04,28,09,37,7.70
2011,04,28,09,38,7.70
2011,04,28,09,39,7.60
2011,04,28,09,40,7.70
2011,04,28,09,41,7.90
2011,04,28,09,42,8.00
2011,04,28,09,43,8.00
2011,04,28,09,44,8.00
2011,04,28,09,45,8.00
2011,04,28,09,46,8.10
2011,04,28,09,47,8.10
2011,04,28,09,48,8.20
2011,04,28,09,51,8.20
2011,04,28,09,52,8.30
2011,04,28,09,53,8.30
2011,04,28,09,54,8.30
2011,04,28,09,55,8.30
2011,04,28,09,56,8.40
2011,04,28,09,57,8.40
2011,04,28,09,58,8.30
2011,04,28,09,59,8.20
2011,04,28,10,00,8.10
2011,04,28,10,01,8.10
2011,04,28,10,02,8.10
2011,04,28,10,03,8.00
2011,04,28,10,04,8.00
2011,04,28,10,05,7.90
2011,04,28,10,06,7.90
2011,04,28,10,07,7.90
2011,04,28,10,08,7.90
2011,04,28,10,09,7.90
2011,04,28,10,10,7.90
2011,04,28,10,11,7.90
2011,04,28,10,12,7.90
2011,04,28,10,13,7.90
2011,04,28,10,14,7.80
2011,04,28,10,15,7.70
2011,04,28,10,16,7.70
2011,04,28,10,17,7.60
2011,04,28,10,18,7.60
2011,04,28,10,19,7.60
2011,04,28,10,20,7.60
2011,04,28,10,21,7.60
2011,04,28,10,22,7.70
2011,04,28,10,23,7.70
2011,04,28,10,24,7.70
2011,04,28,10,25,7.60
2011,04,28,10,26,7.60
2011,04,28,10,27,7.60
2011,04,28,10,28,7.60
2011,04,28,10,29,7.60
2011,04,28,10,30,7.60
2011,04,28,10,31,7.60
2011,04,28,10,32,7.50
2011,04,28,10,33,7.50
2011,04,28,10,34,7.50
2011,04,28,10,35,7.50
2011,04,28,10,36,7.60
2011,04,28,10,37,7.60
2011,04,28,10,38,7.60
2011,04,28,10,39,7.70
2011,04,28,10,40,7.70
2011,04,28,10,41,7.80
2011,04,28,10,42,7.80
2011,04,28,10,43,7.90
2011,04,28,10,44,8.00
2011,04,28,10,45,8.10
2011,04,28,10,46,8.10
2011,04,28,10,47,8.20
2011,04,28,10,48,8.10
2011,04,28,10,49,8.10
2011,04,28,10,50,8.10
2011,04,28,10,51,8.10
2011,04,28,10,52,8.20
2011,04,28,10,53,8.20
2011,04,28,10,54,8.20
2011,04,28,10,55,8.20
2011,04,28,10,56,8.20
2011,04,28,10,57,8.30
2011,04,28,10,58,8.40
2011,04,28,10,59,8.40
2011,04,28,11,00,8.40
2011,04,28,11,01,8.30
2011,04,28,11,02,8.40
2011,04,28,11,03,8.50
2011,04,28,11,04,8.60
2011,04,28,11,05,8.60
2011,04,28,11,06,8.70
2011,04,28,11,07,8.80
2011,04,28,11,08,8.80
2011,04,28,11,09,8.90
2011,04,28,11,10,9.00
2011,04,28,11,11,9.00
2011,04,28,11,12,9.10
2011,04,28,11,13,9.10
2011,04,28,11,14,9.10
2011,04,28,11,15,9.10
2011,04,28,11,16,9.00
2011,04,28,11,17,9.00
2011,04,28,11,18,9.00
2011,04,28,11,19,9.00
2011,04,28,11,20,8.90
2011,04,28,11,21,8.90
2011,04,28,11,22,8.90
2011,04,28,11,23,8.90
2011,04,28,11,24,8.90
2011,04,28,11,25,8.90
2011,04,28,11,26,9.00
2011,04,28,11,27,9.00
2011,04,28,11,28,9.00
2011,04,28,11,29,9.00
2011,04,28,11,30,9.10
2011,04,28,11,31,9.10
2011,04,28,11,32,9.00
2011,04,28,11,33,9.00
2011,04,28,11,34,9.00
2011,04,28,11,35,9.10
2011,04,28,11,36,9.20
2011,04,28,11,37,9.30
2011,04,28,11,38,9.30
2011,04,28,11,39,9.40
2011,04,28,11,40,9.50
2011,04,28,11,41,9.60
2011,04,28,11,42,9.60
2011,04,28,11,43,9.60
2011,04,28,11,44,9.80
2011,04,28,11,45,9.80
2011,04,28,11,46,9.90
2011,04,28,11,47,9.90
2011,04,28,11,48,9.90
2011,04,28,11,49,9.80
2011,04,28,11,50,9.70
2011,04,28,11,51,9.60
2011,04,28,11,52,9.60
2011,04,28,11,53,9.70
2011,04,28,11,54,9.70
2011,04,28,11,55,9.80
2011,04,28,11,56,9.80
2011,04,28,11,57,9.80
2011,04,28,11,58,9.70
2011,04,28,11,59,9.70
2011,04,28,12,00,9.70
2011,04,28,12,01,9.70
2011,04,28,12,02,9.70
2011,04,28,12,03,9.60
2011,04,28,12,04,9.60
2011,04,28,12,05,9.70
2011,04,28,12,06,9.70
2011,04,28,12,07,9.60
2011,04,28,12,08,9.60
2011,04,28,12,09,9.60
2011,04,28,12,10,9.70
2011,04,28,12,11,9.90
2011,04,28,12,12,10.00
2011,04,28,12,13,10.00
2011,04,28,12,14,10.10
2011,04,28,12,15,10.10
2011,04,28,12,16,10.20
2011,04,28,12,17,10.20
2011,04,28,12,18,10.20
2011,04,28,12,19,10.20
2011,04,28,12,20,10.30
2011,04,28,12,21,10.30
2011,04,28,12,22,10.30
2011,04,28,12,23,10.20
2011,04,28,12,24,10.20
2011,04,28,12,25,10.20
2011,04,28,12,26,10.10
2011,04,28,12,27,10.00
2011,04,28,12,28,9.90
2011,04,28,12,29,9.90
2011,04,28,12,30,9.90
2011,04,28,12,31,9.90
2011,04,28,12,32,9.90
2011,04,28,12,33,9.80
2011,04,28,12,34,9.90
2011,04,28,12,35,10.00
2011,04,28,12,36,10.20
2011,04,28,12,37,10.30
2011,04,28,12,38,10.30
2011,04,28,12,39,10.30
2011,04,28,12,40,10.30
2011,04,28,12,41,10.30
2011,04,28,12,42,10.40
2011,04,28,12,43,10.40
2011,04,28,12,44,10.40
2011,04,28,12,45,10.40
2011,04,28,12,46,10.50
2011,04,28,12,47,10.70
2011,04,28,12,48,10.80
2011,04,28,12,49,10.80
2011,04,28,12,50,10.80
2011,04,28,12,51,10.80
2011,04,28,12,52,10.80
2011,04,28,12,53,10.90
2011,04,28,12,54,10.90
2011,04,28,12,55,11.00
2011,04,28,12,56,11.10
2011,04,28,12,57,11.20
2011,04,28,12,58,11.30
2011,04,28,12,59,11.20
2011,04,28,13,00,11.10
2011,04,28,13,01,11.10
2011,04,28,13,02,11.20
2011,04,28,13,03,11.20
2011,04,28,13,04,11.30
2011,04,28,13,05,11.40
2011,04,28,13,06,11.40
2011,04,28,13,07,11.40
2011,04,28,13,08,11.50
2011,04,28,13,09,11.50
2011,04,28,13,10,11.50
2011,04,28,13,11,11.50
2011,04,28,13,12,11.60
2011,04,28,13,13,11.50
2011,04,28,13,14,11.40
2011,04,28,13,15,11.40
2011,04,28,13,16,11.40
2011,04,28,13,17,11.40
